Theta_e
300 297 295 291 287 289 284 281 295 300 307 311 315 323 327 327 329 330 332 334 334 337 339 339 339 341 344 341 342 342 345 348
299 297 296 292 292 286 283 286 287 292 295 297 302 304 310 313 320 323 329 331 333 338 336 336 337 337 337 338 338 340 340 338
295 292 289 291 289 285 284 287 288 285 289 303 304 306 306 311 317 320 322 323 330 334 333 333 332 333 335 328 327 328 330 331
290 295 296 293 289 286 285 284 286 287 288 303 304 304 308 309 312 316 318 319 320 321 322 324 321 322 323 324 324 326 326 330
289 292 295 294 293 286 285 286 284 287 289 302 302 302 305 308 312 312 311 310 311 311 312 313 315 317 319 321 322 324 325 325
286 287 292 292 295 292 288 285 285 287 293 298 300 301 304 305 308 308 309 309 309 309 311 312 313 314 315 316 318 320 323 324
291 295 294 292 293 294 290 287 287 292 293 296 300 302 304 306 308 307 307 308 309 310 310 311 312 312 313 315 316 317 317 319
290 295 295 292 295 295 294 294 295 296 295 300 302 304 305 306 306 305 306 307 308 308 308 307 308 308 309 313 315 316 317 318
285 291 292 288 293 296 296 297 297 294 296 300 300 304 304 303 304 304 306 305 303 303 304 305 305 306 306 311 311 310 311 314
286 287 283 291 300 301 298 299 299 299 300 302 302 304 304 304 302 303 304 302 301 302 303 304 304 306 306 308 310 308 308 309
286 283 289 296 299 298 296 296 303 301 303 304 304 305 303 303 303 301 302 301 301 303 303 303 304 305 305 306 308 306 306 306
285 284 282 291 300 304 301 290 304 304 303 302 300 292 294 301 301 301 302 301 301 302 303 302 303 304 304 304 304 304 305 306
287 285 288 295 302 303 290 291 304 305 303 302 297 296 299 301 299 300 300 301 302 302 301 302 303 303 302 303 303 305 307 308
286 285 285 300 300 294 297 301 305 304 303 302 302 302 300 299 299 299 299 300 301 300 301 303 304 303 303 304 306 307 307 308
290 290 295 300 298 302 303 303 304 303 304 302 300 298 298 297 298 298 299 299 301 300 300 303 305 305 305 306 307 307 307 307
293 295 299 303 305 305 305 305 305 304 303 300 297 297 297 297 297 298 299 299 300 300 300 302 305 307 307 307 307 307 307 307
292 296 300 303 305 306 306 306 305 303 301 299 297 297 297 297 297 298 298 299 300 300 301 302 305 306 308 308 308 307 307 308
292 298 299 300 304 308 305 304 303 301 299 299 298 297 297 296 297 297 297 299 299 301 301 303 305 306 308 309 308 308 307 308
299 301 301 305 307 309 306 305 303 301 299 298 299 298 297 296 297 298 300 300 300 302 304 305 305 307 308 309 310 308 308 309
Wind_Speed
4 2 4 3 2 4 9 3 4 3 2 3 10 10 9 10 10 6 3 7 2 4 6 5 5 5 6 6 5 4 3 3
2 2 6 3 5 4 4 5 2 3 3 4 8 8 8 8 6 6 7 5 1 5 8 6 6 5 7 5 4 3 4 4
4 6 1 4 3 8 7 3 6 3 2 5 2 3 7 7 7 8 9 8 7 8 7 7 5 4 3 5 5 5 5 4
2 2 2 2 3 4 7 3 1 4 2 4 4 5 8 10 9 9 11 10 10 9 7 3 6 7 6 5 3 3 3 4
7 7 4 6 3 5 4 4 3 6 4 2 5 7 8 11 10 10 11 12 10 11 9 8 7 6 6 6 7 8 8 7
8 5 4 2 5 3 4 4 6 4 8 4 4 7 6 8 8 8 8 9 10 10 10 10 10 11 11 11 9 8 7 7
4 3 2 2 2 5 2 4 3 8 5 6 5 6 4 5 8 11 12 13 12 12 12 13 16 16 16 16 16 14 14 14
3 5 4 3 7 5 6 5 8 14 6 4 5 5 6 6 6 6 6 7 8 10 10 10 11 11 13 14 14 15 16 15
2 4 4 4 5 2 3 4 9 11 6 5 4 5 4 4 5 5 6 8 10 11 12 13 14 14 14 14 13 13 13 14
3 3 2 6 3 8 9 6 6 9 7 7 5 3 5 3 3 3 5 6 7 7 9 9 12 13 15 16 15 16 17 15
5 4 2 3 6 2 4 1 1 7 7 5 5 5 4 4 1 2 3 5 6 7 9 10 11 12 12 14 14 17 18 17
2 5 7 7 4 5 4 2 7 6 6 5 4 2 5 6 3 5 6 6 7 8 9 9 11 10 10 13 14 15 17 18
3 2 4 5 3 4 5 8 7 8 7 7 5 5 4 3 3 4 4 4 5 6 7 10 10 9 11 13 15 16 16 17
3 3 3 5 4 7 7 1 7 6 6 6 4 3 3 3 4 3 5 5 5 7 9 11 11 8 12 15 15 15 16 18
6 6 3 3 3 1 5 6 6 7 5 6 6 6 4 4 4 4 5 6 5 6 9 10 9 10 13 15 15 16 17 19
3 2 3 4 1 3 4 5 6 6 7 8 7 5 6 5 5 5 5 6 4 7 10 12 10 12 13 14 13 16 17 19
1 4 4 7 6 5 4 5 5 5 7 9 6 6 6 5 6 6 7 5 5 9 10 14 12 13 15 12 12 14 16 18
6 8 6 6 3 8 9 8 8 8 5 5 7 7 4 6 6 5 8 6 8 10 11 15 13 15 15 13 10 11 14 15
3 2 4 2 2 5 7 7 6 7 5 6 7 6 5 6 5 8 8 9 10 13 12 14 14 14 14 17 11 10 12 15
Wind_Direction
53 61 100 167 82 168 105 2 73 251 119 93 24 43 51 75 87 95 177 93 124 63 71 77 95 106 116 113 90 50 8 297
334 75 33 112 145 66 15 131 132 19 66 344 356 11 37 41 54 40 46 54 133 99 84 50 32 34 42 60 72 31 32 23
47 23 230 360 37 54 108 102 144 130 263 1 38 28 77 75 73 66 62 51 62 76 61 55 17 29 354 22 26 13 1 347
125 320 269 99 109 125 118 209 70 125 266 357 42 20 74 65 69 66 66 63 61 46 56 43 19 3 350 344 351 272 274 280
355 353 3 43 36 109 105 98 191 126 225 98 54 50 42 78 63 57 52 46 36 36 25 17 3 345 340 324 322 320 319 313
179 185 174 7 357 86 108 107 166 191 150 151 89 78 46 59 57 55 45 35 24 17 10 2 357 355 349 344 334 320 299 279
69 25 122 91 348 338 85 140 136 170 121 171 155 122 67 60 42 32 21 17 13 3 1 358 355 350 346 337 334 334 325 319
56 5 23 75 11 50 60 110 67 116 106 149 114 89 71 59 51 37 18 3 354 352 349 345 339 333 327 320 328 328 320 310
196 349 34 8 341 359 64 33 143 149 186 142 141 137 145 101 59 29 7 356 347 341 337 334 332 327 319 313 309 308 304 304
137 38 159 281 321 107 105 56 96 106 123 140 151 123 129 120 111 32 351 333 326 317 310 309 303 302 306 309 307 308 305 299
110 72 147 339 254 199 120 263 203 136 151 147 110 133 215 168 137 352 295 284 278 273 274 280 279 291 290 295 296 302 302 301
108 128 190 234 214 143 132 303 194 170 167 149 89 113 256 167 176 217 233 241 250 255 261 264 269 269 279 294 299 292 288 296
126 140 279 243 163 144 95 238 166 166 179 162 178 197 166 196 227 203 216 261 275 284 282 286 295 292 293 301 301 302 295 286
89 97 247 180 96 157 209 24 166 161 164 179 222 239 245 264 253 262 296 306 302 304 307 308 306 302 299 304 304 304 297 290
162 212 258 280 215 131 158 146 171 153 161 178 198 223 208 249 267 277 281 280 274 272 291 296 308 301 306 303 307 305 299 293
79 275 245 258 217 179 171 162 155 162 165 171 197 213 224 236 263 270 272 277 276 293 298 295 295 299 289 293 299 302 303 298
335 280 316 273 233 190 166 130 128 136 170 192 194 224 213 229 251 262 271 288 279 280 281 280 286 282 282 294 291 293 304 312
217 206 169 230 225 166 170 180 176 161 168 200 199 223 215 245 245 253 271 273 272 276 261 273 273 266 274 280 281 291 311 320
200 168 187 317 346 178 186 173 167 180 178 195 227 215 212 245 241 256 265 267 268 267 269 274 273 270 272 278 278 289 300 320